Location: Burgberg
(50.1428°N, 11.0671°E)
Time: 22:45:29
(UTC+00:00)

STARLINK-57 - Pass Details

Date: 26 January 2020
Orbit: 528 x 531 km, 53.0° (Epoch: 17 February)

Event Time Altitude Azimuth Distance (km) Brightness Sun altitude
Exits shadow 04:54:40 57° 279° (W) 629 3.5 -19.6°
Maximum altitude 04:55:23 74° 344° (NNW) 555 3.5 -19.5°
Drops below altitude 10° 04:59:25 10° 70° (ENE) 1,783 7.1 -18.9°
Sets 05:01:39 0° 72° (ENE) 2,675 8.3 -18.5°
